Plattsburgh, NY

2:34 PM EST on February 19, 2017 (GMT -0500)
Plattsburgh International

Weather History for KPBG - March, 2014

Change the Weather History Date:

Sunday, March 9, 2014

  Actual Average Record
Temperature  
Mean Temperature 18 °F 28 °F  
Max Temperature 26 °F 38 °F 71 °F (2016)
Min Temperature 10 °F 19 °F -11 °F (1984)
Degree Days  
Heating Degree Days 47 37  
Month to date heating degree days 464 342  
Since 1 July heating degree days 6307 5954  
Cooling Degree Days 0 0  
Month to date cooling degree days 0 0  
Year to date cooling degree days 0 0  
Moisture  
Dew Point 10 °F    
Average Humidity 60    
Maximum Humidity 74    
Minimum Humidity 46    
Precipitation  
Precipitation T in - 1.39 in (1950)
Month to date precipitation T  
Year to date precipitation 1.26  
Sea Level Pressure  
Sea Level Pressure 29.95 in    
Wind  
Wind Speed 6 mph (NE)    
Max Wind Speed 12 mph    
Max Gust Speed 16 mph    
Visibility 8 miles    
Events Snow    
T = Trace of Precipitation, MM = Missing Value Source: NWS Daily Summary

Daily Weather History Graph

Daily Weather History Graph

Search for Another Location

Airport or City:

Trip Planner

Search our weather history database for the weather conditions in past years. The results will help you decide how hot, cold, wet, or windy it might be!

Date:

Astronomy

Mar. 09, 2014 Rise Set
Actual Time 7:17 AM EDT 6:52 PM EDT
Civil Twilight 6:48 AM EDT 7:21 PM EDT
Nautical Twilight 6:14 AM EDT 7:55 PM EDT
Astronomical Twilight 5:40 AM EDT 8:29 PM EDT
Moon 12:32 PM EDT (3/9) 3:51 AM EDT (3/9)
Length of Visible Light 12h 33m
Length of Day
11h 34m
First Quarter, 61% of the Moon is Illuminated
Mar 9
First Quarter
Mar 16
Full
Mar 23
Last Quarter
Mar 30
New
Apr 7
First Quarter

Hourly Weather History & Observations

Time (EDT) Temp. Windchill Dew Point Humidity Pressure Visibility Wind Dir Wind Speed Gust Speed Precip Events Conditions
12:53 AM 21.9 °F 13.4 °F 7.0 °F 53% 29.96 in 10.0 mi NW 6.9 mph - N/A   Clear
1:53 AM 19.9 °F 12.1 °F 6.1 °F 55% 29.96 in 10.0 mi NW 5.8 mph - N/A   Clear
3:53 AM 19.0 °F 11.1 °F 6.1 °F 57% 29.96 in 10.0 mi WNW 5.8 mph - N/A   Clear
4:53 AM 17.1 °F 10.0 °F 6.1 °F 62% 29.97 in 10.0 mi NW 4.6 mph - N/A   Clear
5:53 AM 15.1 °F 6.4 °F 5.0 °F 64% 29.99 in 10.0 mi NNW 5.8 mph - N/A   Clear
6:53 AM 15.1 °F 3.3 °F 3.9 °F 61% 30.00 in 10.0 mi North 9.2 mph - N/A   Clear
7:53 AM 14.0 °F 6.5 °F 3.9 °F 64% 30.02 in 10.0 mi NW 4.6 mph - N/A   Clear
8:53 AM 17.1 °F 10.0 °F 3.9 °F 56% 30.04 in 10.0 mi NNW 4.6 mph - N/A   Clear
9:53 AM 18.0 °F 8.7 °F 3.9 °F 54% 30.05 in 10.0 mi North 6.9 mph - 0.00 in   Clear
10:53 AM 19.0 °F 8.2 °F 5.0 °F 54% 30.05 in 10.0 mi NE 9.2 mph - 0.00 in   Clear
11:53 AM 19.9 °F 10.1 °F 6.1 °F 55% 30.04 in 10.0 mi NE 8.1 mph - N/A   Clear
12:53 PM 21.0 °F 11.4 °F 7.0 °F 55% 30.04 in 10.0 mi East 8.1 mph - N/A   Clear
1:53 PM 21.9 °F 14.5 °F 8.1 °F 55% 30.01 in 10.0 mi ENE 5.8 mph - N/A   Clear
2:53 PM 23.0 °F 13.9 °F 7.0 °F 50% 29.99 in 10.0 mi NE 8.1 mph - N/A   Clear
3:53 PM 25.0 °F 15.5 °F 8.1 °F 49% 29.96 in 10.0 mi ENE 9.2 mph - N/A   Clear
4:53 PM 26.1 °F 18.4 °F 8.1 °F 47% 29.94 in 10.0 mi ENE 6.9 mph - N/A   Clear
5:53 PM 25.0 °F 19.3 °F 8.1 °F 49% 29.94 in 10.0 mi NNE 4.6 mph - N/A   Clear
6:53 PM 24.1 °F 19.7 °F 8.1 °F 51% 29.94 in 10.0 mi NE 3.5 mph - N/A   Partly Cloudy
7:53 PM 24.1 °F - 10.0 °F 55% 29.93 in 10.0 mi Calm Calm - N/A   Overcast
8:53 PM 23.0 °F - 10.9 °F 60% 29.91 in 10.0 mi Calm Calm - N/A   Overcast
9:53 PM 23.0 °F - 10.9 °F 60% 29.89 in 10.0 mi Calm Calm - N/A   Overcast
10:53 PM 23.0 °F 18.4 °F 12.9 °F 65% 29.87 in 8.0 mi South 3.5 mph - 0.00 in Snow Light Snow
11:53 PM 24.1 °F 18.2 °F 18.0 °F 77% 29.86 in 3.0 mi South 4.6 mph - 0.00 in Snow Light Snow
12:13 AM 24.1 °F 17.0 °F 19.0 °F 81% 29.83 in 2.5 mi South 5.8 mph - 0.00 in Snow Light Snow
12:21 AM 24.1 °F 18.2 °F 19.0 °F 81% 29.83 in 2.5 mi South 4.6 mph - 0.00 in Snow Light Snow
12:31 AM 23.0 °F 13.9 °F 18.0 °F 81% 29.83 in 2.5 mi SSE 8.1 mph - 0.00 in Snow Light Snow
12:39 AM 21.9 °F 12.5 °F 18.0 °F 85% 29.83 in 2.0 mi SSE 8.1 mph - 0.00 in Snow Light Snow
12:53 AM 21.9 °F 12.5 °F 18.0 °F 85% 29.84 in 2.0 mi SSE 8.1 mph - 0.00 in Snow Light Snow